Theta_e
341 338 326 324 325 333 334 328 330 333 336 336 334 336 338 338 334 329 326 327 331 333 332 318 316 316 320 322 326 318 328 328 317 317 320 325 329 330 332 335 337 337 337
341 338 326 324 326 331 338 333 328 332 334 335 335 336 337 333 328 327 325 327 333 332 321 314 314 316 327 328 325 320 319 320 321 322 317 318 325 330 332 336 337 337 333
340 341 329 326 326 326 337 336 333 333 333 333 335 334 333 329 330 326 329 331 330 329 317 316 314 313 318 320 324 327 323 321 320 322 333 334 324 323 330 333 333 332 328
340 340 338 330 332 326 327 335 335 334 334 335 334 330 324 321 320 323 326 334 335 332 322 319 318 315 313 314 315 317 323 327 325 328 332 334 335 325 322 326 330 325 322
341 340 339 328 328 328 328 327 328 330 328 328 325 323 322 322 329 329 328 332 334 332 331 319 320 319 315 313 312 312 314 320 324 331 333 333 335 333 328 328 330 327 322
339 339 336 330 331 333 332 329 329 330 333 330 331 329 324 324 324 326 329 333 333 333 331 329 320 322 320 315 312 312 313 317 324 330 331 330 334 333 333 330 330 326 321
338 338 334 332 333 333 333 333 333 333 333 332 332 331 329 325 326 327 327 330 333 333 331 332 332 325 325 320 314 312 312 314 325 328 330 332 331 333 332 333 330 324 322
337 337 334 333 332 331 331 331 332 332 332 333 333 332 331 328 328 330 330 330 329 330 330 331 330 330 327 328 318 314 312 312 318 326 328 329 326 327 331 332 332 328 323
336 336 335 334 333 334 332 332 331 331 330 331 331 331 332 332 332 332 331 330 330 330 331 331 331 329 330 331 325 317 313 312 327 326 327 328 328 321 325 332 333 330 329
335 335 334 334 334 334 334 334 333 333 333 330 329 332 332 330 329 333 333 332 331 330 330 330 330 330 329 331 332 323 318 313 316 326 326 328 326 321 321 322 324 325 326
317 318 316 315 316 323 328 320 318 329 333 333 331 333 334 334 333 331 331 331 331 331 331 329 330 331 330 329 334 330 324 320 325 326 326 327 320 320 322 320 324 327 328
315 313 312 312 311 310 310 311 312 314 327 329 331 333 333 331 333 332 332 332 332 332 332 332 331 330 330 330 331 333 329 327 327 325 325 324 318 318 325 322 321 324 326
312 311 311 310 311 311 311 311 314 314 311 312 315 321 325 328 326 329 331 332 331 330 331 331 333 332 331 332 332 332 331 330 328 326 324 321 315 318 321 328 328 326 325
310 309 309 309 309 310 310 311 313 314 313 312 310 311 312 315 314 319 324 321 319 319 319 323 329 333 332 331 332 332 332 332 331 328 324 324 312 315 318 321 327 328 324
309 308 308 308 309 309 309 309 309 309 309 308 308 308 308 309 309 309 314 314 321 316 311 311 312 316 324 331 332 331 331 332 331 331 331 327 320 311 316 319 322 326 327
308 308 308 308 308 308 308 308 308 307 307 307 307 307 307 307 307 308 308 308 308 308 310 309 309 310 309 309 317 331 331 331 331 331 331 332 331 316 311 320 321 322 325
309 308 308 308 308 307 307 307 307 306 306 306 306 306 306 307 307 306 306 306 307 308 308 308 309 308 308 308 308 308 315 330 330 330 331 330 330 329 314 315 322 323 322
308 308 308 308 307 307 307 307 306 306 306 306 306 306 306 306 306 306 307 307 307 306 307 308 309 311 312 310 310 309 309 308 318 326 324 326 329 329 327 315 320 323 323
310 308 308 308 308 308 308 307 306 306 306 306 306 306 307 307 307 307 307 307 307 307 307 307 306 307 310 317 318 314 318 314 310 318 327 324 324 327 328 323 313 322 324
311 309 308 308 308 308 307 306 306 306 306 306 306 306 306 307 307 307 308 308 308 309 311 312 308 307 308 317 319 318 315 313 309 309 311 315 318 322 327 324 316 322 324
309 309 309 309 309 308 306 305 305 305 305 305 305 305 306 307 307 308 309 310 311 312 314 314 313 309 309 310 317 315 313 314 312 308 309 315 320 322 322 322 314 315 323
309 309 309 309 309 306 305 305 305 305 305 305 306 306 306 306 307 308 308 309 311 311 313 314 315 315 315 316 314 316 317 316 316 316 312 310 314 319 321 320 319 317 319
309 309 309 309 308 305 305 305 305 304 305 308 306 306 306 306 307 307 307 309 310 311 311 312 313 313 314 315 315 315 317 316 316 316 318 314 317 319 320 321 320 320 316
309 309 309 308 306 305 305 305 305 304 305 305 306 306 306 306 306 306 306 306 308 309 310 311 312 312 312 312 313 315 314 316 317 317 318 317 316 315 315 317 317 316 316
309 309 309 306 305 305 304 305 304 304 304 305 305 306 306 307 307 306 306 306 306 306 307 309 312 311 311 312 312 313 314 314 313 315 315 314 317 317 315 316 315 317 318
309 308 307 305 304 304 304 304 304 304 304 305 305 306 306 307 306 306 306 306 306 306 307 307 308 310 310 310 311 311 313 314 314 315 315 315 314 315 317 316 316 316 317
Wind_Speed
9 8 11 10 9 8 10 13 10 11 10 9 9 8 8 9 9 7 7 7 7 6 4 5 6 5 4 4 5 7 8 8 8 8 7 8 9 10 11 12 12 11 12
12 9 11 11 11 9 8 10 11 10 10 10 8 8 9 8 6 6 5 6 7 4 4 6 7 8 7 7 7 6 7 7 7 8 8 6 7 9 11 12 11 11 12
11 10 9 10 11 10 9 9 10 10 10 9 9 8 7 7 6 6 4 7 7 4 5 7 8 8 7 6 5 6 6 6 7 10 12 6 1 7 8 9 8 9 9
9 8 9 11 11 10 9 9 9 9 9 8 7 6 6 6 6 5 4 5 6 3 4 5 6 6 6 5 3 3 3 5 6 10 9 2 0 4 7 8 7 7 9
9 9 11 11 11 11 9 8 8 8 8 7 6 6 5 6 5 4 4 4 6 4 3 2 3 4 4 4 3 3 2 2 6 8 5 4 3 4 7 9 8 9 8
11 9 11 11 10 10 10 9 9 8 8 7 7 7 6 6 5 4 4 5 6 6 3 4 1 1 2 3 3 2 3 3 6 2 3 4 3 5 8 11 9 8 6
9 9 12 12 11 11 11 11 10 9 9 8 7 7 6 6 5 4 4 5 5 6 4 4 3 2 1 1 2 1 1 3 5 0 1 3 5 7 6 10 8 6 5
11 11 10 10 10 10 10 10 10 10 9 8 6 6 6 6 6 6 5 5 5 6 6 5 4 4 3 2 2 1 0 2 4 1 1 1 6 3 8 9 8 8 7
9 9 8 9 10 10 10 10 10 10 10 9 7 6 6 5 6 6 5 6 6 6 7 6 6 6 5 6 4 2 2 2 7 3 2 2 7 6 6 6 5 7 7
8 8 8 7 9 8 9 9 12 13 10 9 7 6 5 5 7 6 5 6 6 6 7 8 8 8 7 8 7 5 3 3 5 6 3 8 9 5 7 8 8 9 8
8 7 6 4 4 4 5 1 2 3 14 12 8 7 9 4 7 6 7 6 7 7 8 8 10 10 10 10 10 9 6 4 4 7 5 11 8 5 5 7 9 9 8
5 5 4 4 3 4 3 2 2 4 5 7 5 6 5 8 6 6 6 6 7 8 8 9 11 11 11 12 12 14 10 5 8 8 8 12 8 6 6 6 8 10 11
5 5 5 5 5 4 4 4 4 4 4 5 5 6 5 4 3 4 4 4 6 9 10 10 11 12 11 12 15 14 11 10 10 9 10 13 11 9 9 7 10 10 10
6 5 6 5 6 6 6 6 6 6 5 3 3 4 5 5 5 5 3 7 8 10 10 11 12 12 12 13 14 17 15 17 15 13 10 15 13 13 13 12 11 12 12
7 7 8 8 9 9 8 8 7 6 5 3 1 2 4 5 6 7 7 7 6 9 10 11 12 12 14 14 16 17 18 20 19 19 18 18 15 16 16 16 16 14 16
9 10 11 13 12 11 10 9 7 5 3 1 1 3 4 5 6 7 8 9 9 11 11 12 14 14 14 15 17 18 19 19 21 22 22 21 20 18 20 20 18 18 15
12 15 15 15 14 11 8 5 3 3 4 5 6 7 8 9 9 10 11 12 13 13 13 13 13 13 13 14 14 17 20 20 23 22 24 22 26 23 23 24 23 20 20
16 16 15 12 9 6 3 2 5 6 6 6 7 8 9 10 12 13 14 15 16 16 15 16 16 14 16 14 16 15 16 19 23 24 23 24 24 26 27 28 27 24 22
14 15 13 9 6 2 1 5 7 7 7 8 8 9 11 11 13 13 15 15 17 17 17 20 19 19 17 14 15 16 14 18 18 17 21 25 25 26 28 27 29 29 26
12 13 11 7 4 2 4 6 7 8 9 10 10 12 13 13 14 14 14 14 15 13 13 18 20 21 20 15 15 15 18 22 21 21 20 21 22 23 25 27 27 29 29
15 12 10 8 5 3 5 5 7 9 11 12 12 13 13 13 14 13 12 12 11 11 10 12 18 20 19 19 17 21 19 21 25 24 24 20 18 20 21 23 28 29 30
17 15 11 7 5 5 6 7 9 12 13 13 13 14 14 14 15 14 14 13 12 12 11 10 10 16 14 13 16 14 11 13 18 19 22 24 23 21 21 24 24 28 31
19 15 12 9 6 5 6 8 11 12 12 10 15 15 15 15 15 15 15 14 13 14 13 11 11 13 16 14 14 14 8 9 10 13 16 16 19 20 23 22 21 24 28
19 18 13 9 6 4 6 8 10 12 14 15 16 16 17 15 15 15 16 15 15 15 15 15 12 14 16 18 16 19 23 22 9 8 8 9 13 18 23 25 27 28 31
20 18 14 9 6 4 7 9 11 14 16 17 16 16 15 14 14 13 14 16 17 16 16 17 16 16 17 17 19 19 22 21 26 28 23 22 18 16 16 15 19 23 27
20 16 12 8 5 4 6 10 13 15 17 17 15 13 13 12 13 11 11 11 12 13 15 16 17 18 18 20 20 22 24 21 19 23 23 22 23 22 22 24 18 14 16
Wind_Direction
161 183 155 155 156 150 141 143 150 153 157 155 148 143 138 138 143 136 121 115 119 106 81 52 84 120 120 84 95 109 108 95 99 105 116 116 111 119 120 114 107 119 118
158 165 157 158 160 161 147 148 157 158 157 155 153 147 143 141 145 141 129 133 132 103 76 80 88 101 100 97 92 105 110 103 97 94 96 99 121 127 129 127 131 125 119
152 177 162 161 165 169 161 151 151 156 162 159 154 149 150 154 158 153 140 144 149 104 91 88 86 93 102 106 105 94 101 100 96 91 78 85 130 150 146 143 140 138 133
148 145 160 165 168 172 178 171 160 160 163 165 165 167 166 167 169 164 155 160 156 129 117 95 87 86 89 92 100 110 107 98 97 86 68 50 2 182 176 177 163 141 134
144 152 181 171 174 175 177 178 178 175 172 169 170 170 166 164 161 166 165 177 176 164 152 117 90 80 77 77 87 109 127 126 102 72 105 160 106 278 178 174 163 146 140
160 164 173 169 175 176 173 181 187 186 182 184 178 173 170 175 179 174 170 176 182 190 188 195 178 95 64 59 68 92 120 132 93 67 61 64 192 220 201 187 175 160 149
159 144 171 171 174 179 183 185 187 191 192 192 189 182 184 181 180 183 189 188 192 204 225 221 230 241 241 24 43 39 123 155 121 315 55 61 264 208 185 176 185 179 178
169 165 165 172 183 193 199 203 204 203 203 196 194 194 193 189 188 191 193 198 208 212 226 238 248 259 248 262 327 324 264 182 121 250 259 274 263 192 199 202 221 230 204
187 184 190 194 191 196 203 212 211 214 204 203 206 218 221 213 208 206 211 214 219 224 231 236 242 255 257 248 265 279 275 206 148 250 231 312 289 233 200 183 192 176 188
176 185 197 212 229 222 222 230 228 217 213 199 212 226 220 231 232 224 218 222 222 227 236 249 252 260 250 250 247 257 257 238 179 248 240 252 273 249 223 207 210 215 231
141 156 161 166 162 216 236 243 1 289 212 207 232 250 230 240 244 229 227 241 246 251 258 261 263 260 254 246 249 251 251 255 257 235 232 254 260 261 245 221 214 212 212
146 173 187 191 179 173 171 180 119 81 120 178 195 237 159 235 258 268 262 247 258 263 262 259 259 262 258 248 248 246 250 237 241 243 238 248 248 250 243 226 218 221 222
195 210 216 211 196 186 160 122 100 116 159 186 209 215 222 251 267 275 306 299 276 269 271 271 267 259 256 240 240 246 254 231 227 248 241 259 243 245 242 237 220 225 216
216 217 204 191 175 164 150 128 116 118 125 138 193 207 216 225 253 255 281 278 277 273 274 272 269 261 250 248 254 244 231 243 244 229 240 265 250 238 242 241 232 226 229
194 181 162 152 146 143 140 135 124 113 116 130 192 232 249 257 263 270 267 269 277 282 282 279 277 278 266 257 250 247 244 245 253 249 244 257 261 247 240 242 243 240 238
167 157 148 139 133 128 122 115 109 102 88 54 322 298 293 287 283 279 278 279 278 278 274 278 273 274 278 271 261 255 249 249 252 257 259 260 261 256 243 241 246 247 251
152 146 139 135 132 128 121 107 72 26 355 335 323 313 302 297 291 286 281 279 277 273 273 274 279 281 281 283 277 267 258 256 256 260 259 262 258 255 252 240 240 244 248
153 149 149 147 142 135 110 33 357 349 340 332 322 311 305 296 293 287 286 282 276 276 273 270 265 267 270 273 283 283 275 262 254 259 258 262 259 258 246 247 240 242 244
157 162 163 163 161 165 329 338 339 343 346 337 327 317 309 302 292 287 283 280 278 276 273 267 267 266 267 273 280 271 255 260 272 257 252 257 258 259 253 245 240 241 243
163 174 178 185 199 254 312 332 341 340 337 330 326 319 314 308 302 296 288 285 281 281 279 285 270 263 257 247 252 264 276 279 268 262 267 261 257 258 255 247 241 238 243
183 188 193 204 223 276 315 333 336 336 336 332 326 321 316 310 304 299 292 290 293 288 278 277 272 276 266 263 274 277 285 282 278 268 261 252 254 254 253 251 245 244 245
190 196 205 218 250 292 315 333 340 340 338 333 330 328 319 316 310 306 297 293 287 283 284 282 276 290 282 273 264 278 290 283 272 289 272 254 245 241 247 249 249 248 243
194 199 207 219 247 288 317 334 342 341 343 328 321 322 318 313 307 303 300 294 286 283 283 279 276 268 276 268 268 245 268 252 283 279 284 275 261 254 244 249 250 252 251
191 198 206 218 242 278 318 334 338 340 334 327 325 323 321 316 308 297 292 288 283 280 280 282 283 276 268 269 264 258 251 250 279 290 274 289 273 273 262 257 259 263 262
194 196 204 216 235 281 318 330 335 334 331 327 327 329 330 325 318 308 297 288 286 283 280 275 272 269 269 268 264 258 262 266 254 257 265 267 283 296 276 270 277 266 258
188 195 200 214 242 294 318 327 329 329 328 325 325 330 330 338 331 328 324 318 306 297 288 284 276 269 262 262 264 263 257 256 261 255 254 256 261 264 280 276 267 280 265